Find Kuiper-00123

NORAD ID: 65952 Int'l Des: 2025-228 Owner: KUIP Country: US Constellation: amazon-leo operational
LEOCIRCULAR

Current View

Loading 3D Globe...

About Kuiper-00123

Kuiper-00123 (NORAD 65952) is a amazon-leo constellation satellite launched Oct 14, 2025 by KUIP of US. It operates in LEO, CIRCULAR orbit with a mass of 490.00 kg.

Upcoming Passes

Passes for default location (London). Set your location on the main map for personalized predictions.

Altitude History

Loading altitude history...

Two-Line Element Set

1 65952U 25228F 26254.06203735 .00000194 00000-0 54465-4 0 9993
2 65952 51.8980 263.3454 0000562 47.4250 312.6759 14.79927183 50641
Epoch: Sep 11, 2026 • Age: 9 hours

Current Status

Altitude 646.2 km
Apogee / Perigee N/A
Velocity 7.53 km/s
Sub-Earth Point -48.18°S, 47.06°E
Launch Date Oct 14, 2025
Age 0.9 years
Type internet

Technical Details

Classification Payload
Mass 490.00 kg
Dry Mass 490.00 kg
Total Mass 490.00 kg
Length 1.80 m
Diameter 0.70 m
Span 5.00 m
Shape Box + 2 pan
Manufacturer KUIP
Bus Type Kuiper
Phase Status In Orbit
Owner/State KUIP/US

Most Searched